Notices

What's New in latest Release from April 7th, 2021:

- Updated Glossary, including Speed of Maximum Gust, and Total Hourly Precipitation

- Updated national and regional climate services offices contacts and prices information

- Addition of station inventory lists for 1981-2010, 1971-2000, and 1961-1990 Normals.

If you haven't already, please take our survey and provide feedback about our website: https://eccc.sondage-survey.ca/f/LanguageSelection.aspx?s=442ca660-fcf1-47c0-95a9-59707d6fd709

Hourly Data Report for March 02, 2021

MIRAMICHI RCS
NEW BRUNSWICK
Current Station Operator: ECCC - MSC

47°00'34.000" N
65°27'54.000" W
33.00 m
8100989
71744
ACQ

Download Data

Hourly Data (March 2021)
Hourly Data Report for March 2, 2021
TIME
LST
Temp Definition
°C
Dew Point Definition
°C
Rel Hum Definition
%
Precip. Amount Definition
mm

Wind Dir Definition
10's deg

Wind Spd Definition
km/h
Visibility Definition
km
Stn Press Definition
kPa
Hmdx Definition


Wind Chill Definition


Weather Definition


00:00 -1.5 -1.9 97 LegendMM 26 12   97.63   -6 LegendNANA
01:00 -3.8 -4.8 93 LegendMM 29 33   97.74   -12 LegendNANA
02:00 -7.7 -9.4 87 LegendMM 29 34   97.84   -17 LegendNANA
03:00 -9.8 -13.5 74 LegendMM 27 29   97.89   -19 LegendNANA
04:00 -11.4 -15.5 72 LegendMM 27 32   97.90   -22 LegendNANA
05:00 -12.8 -17.1 70 LegendMM 27 25   97.93   -22 LegendNANA
06:00 -13.8 -17.7 72 LegendMM 27 25   98.01   -24 LegendNANA
07:00 -15.4 -18.5 77 LegendMM 26 31   98.02   -27 LegendNANA
08:00 -16.1 -19.2 77 LegendMM 26 31   98.05   -28 LegendNANA
09:00 -17.2 -20.7 74 LegendMM 26 31   98.07   -29 LegendNANA
10:00 -17.1 -20.2 77 LegendMM 26 28   98.04   -28 LegendNANA
11:00 -16.3 -20.1 72 LegendMM 26 31   98.01   -28 LegendNANA
12:00 -15.1 -19.3 70 LegendMM 29 32   98.02   -26 LegendNANA
13:00 -14.0 -19.4 64 LegendMM 27 32   98.00   -25 LegendNANA
14:00 -13.9 -19.5 63 LegendMM 28 35   98.06   -25 LegendNANA
15:00 -13.2 -18.8 63 LegendMM 28 36   98.10   -25 LegendNANA
16:00 -13.6 -19.0 64 LegendMM 29 38   98.18   -25 LegendNANA
17:00 -13.2 -19.1 61 LegendMM 28 31   98.23   -24 LegendNANA
18:00 -12.9 -18.6 62 LegendMM 28 31   98.27   -23 LegendNANA
19:00 -12.5 -17.8 64 LegendMM 28 33   98.29   -23 LegendNANA
20:00 -12.0 -17.4 64 LegendMM 28 33   98.36   -23 LegendNANA
21:00 -11.7 -17.1 64 LegendMM 28 33   98.45   -22 LegendNANA
22:00 -11.9 -17.0 65 LegendMM 28 32   98.51   -22 LegendNANA
23:00 -12.2 -17.4 65 LegendMM 28 30   98.55   -22 LegendNANA

Notes on Data Quality.

Legend

  • E = Estimated
  • M = Missing
  • NA = Not Available*
  • [empty] = Indicates an unobserved value
Date modified: